Regional Weather Roundup
Issued by NWS

Home | Current Version | Previous Version | Graphics & Text | Print | Product List | Glossary On
Versions: 1 2 3 4 5 6 7 8 9 10 11 12 13 14 15 16 17 18 19 20 21 22 23 24 25 26 27 28 29 30 31 32 33 34 35 36 37 38 39 40 41 42 43 44 45 46 47 48 49 50
000
ASUS43 KMKX 060200
RWRWI

WISCONSIN REGIONAL WEATHER ROUNDUP
NATIONAL WEATHER SERVICE MILWAUKEE/SULLIVAN WI
800 PM CST MON DEC 05 2016

NOTE: "FAIR" INDICATES FEW OR NO CLOUDS BELOW 12,000 FEET WITH NO
SIGNIFICANT WEATHER AND/OR OBSTRUCTIONS TO VISIBILITY.

WIZ001-002-006>008-014>016-023>028-060300-
NORTHWEST WISCONSIN

CITY           SKY/WX    TMP DP  RH WIND       PRES   REMARKS
SUPERIOR ARPT  CLOUDY    35  33  92 E5        29.71F WCI  31
ASHLAND        CLOUDY    35  33  92 MISG      29.75F
HAYWARD        CLOUDY    35  29  78 SE13G24   29.70F WCI  26
SIREN          MOCLDY    36  32  86 S9G17     29.69R WCI  29
CUMBERLAND     CLOUDY    32  32 100 SE10      29.70S WCI  24
RICE LAKE      CLOUDY    34  32  91 SE13      29.73S WCI  25
CHETEK         CLOUDY    34  32  92 SE9G16    29.73F WCI  27
LADYSMITH      CLOUDY    36  31  85 S7        29.78R WCI  30
EAU CLAIRE     NOT AVBL
MENOMONIE      CLOUDY    36  32  86 SE13      29.73S WCI  27
NEW RICHMOND   CLOUDY    36  32  85 S9        29.70R WCI  29
OSCEOLA        CLOUDY    37  32  82 SE9       29.71F WCI  30
$$

WIZ003>005-009-010-017-018-060300-
NORTH CENTRAL WISCONSIN

CITY           SKY/WX    TMP DP  RH WIND       PRES   REMARKS
MANITOWISH WTR CLOUDY    33  33 100 SE8       29.78F WCI  26
ARBOR VITAE    CLOUDY    37  34  90 SE8G20    29.79F WCI  30
WOODRUFF       CLOUDY    37  34  90 SE8G20    29.79F WCI  30
RHINELANDER    CLOUDY    34  32  92 SE10      29.82F WCI  26
EAGLE RIVER    CLOUDY    32  32 100 SE7       29.85F WCI  26
LAND O LAKES   FLURRIES  33  32  96 SE6       29.86F WCI  27
PHILLIPS       CLOUDY    33  31  92 SE9       29.75F WCI  25
TOMAHAWK       CLOUDY    32  30  92 SE5       29.82F WCI  27
MEDFORD        CLOUDY    32  30  93 SE10G18   29.79F FOG     WCI  24
MERRILL        CLOUDY    33  32  98 SE5       29.84F WCI  28
$$

WIZ029-030-035-036-043>047-060300-
CENTRAL WISCONSIN

CITY           SKY/WX    TMP DP  RH WIND       PRES   REMARKS
WAUSAU         CLOUDY    32  30  92 SE5       29.83F WCI  27
MOSINEE        PTCLDY    32  32 100 SE8       29.85F FOG     WCI  25
MARSHFIELD     CLOUDY    32  30  92 SE12      29.81F WCI  23
STEVENS POINT  CLOUDY    31  31 100 SE8       29.87F FOG     WCI  23
WAUPACA        CLOUDY    34  32  91 CALM      29.91F FOG
WAUTOMA        CLOUDY    32  31  96 S9        29.91F WCI  24
WISC RAPIDS    CLOUDY    32  32 100 SE8       29.86F WCI  25
CAMP DOUGLAS   NOT AVBL
$$

WIZ011>013-019>022-031-037>040-048>050-060300-
NORTHEAST WISCONSIN

CITY           SKY/WX    TMP DP  RH WIND       PRES   REMARKS
ANTIGO         CLOUDY    31  31  99 E5        29.84F FOG     WCI  27
SHAWANO        CLOUDY    35  32  90 NE6       29.90F WCI  30
OCONTO         CLOUDY    34  32  92 CALM      29.95F
STURGEON BAY   NOT AVBL
GREEN BAY      CLOUDY    35  34  96 SE5       29.92F WCI  31
MANITOWOC      NOT AVBL
APPLETON       CLOUDY    32  32 100 SE6       29.90F WCI  26
CLINTONVILLE   CLOUDY    32  32 100 SE5       29.90F FOG     WCI  27
OSHKOSH        CLOUDY    33  30  88 SE8       29.91F WCI  26
$$

WIZ032>034-041-042-053>061-060300-
SOUTHWEST WISCONSIN

CITY           SKY/WX    TMP DP  RH WIND       PRES   REMARKS
LA CROSSE      CLOUDY    38  31  76 SE15      29.80S WCI  29
SPARTA         CLOUDY    35  31  88 SE8       29.84R WCI  28
VIROQUA        CLOUDY    32  32  99 SE16      29.81F WCI  21
BOSCOBEL       CLOUDY    35  31  85 CALM      29.87S
PRAIRIE DU CHI CLOUDY    34  31  88 SE7       29.85R WCI  28
PLATTEVILLE    CLOUDY    33  33 100 SE16      29.86F WCI  22
$$

WIZ056-057-062-063-064-067-068-060300-
SOUTH CENTRAL WISCONSIN

CITY           SKY/WX    TMP DP  RH WIND       PRES   REMARKS
REEDSBURG      CLOUDY    32  32 100 CALM      29.88R
BARABOO/DELLS  CLOUDY    32  31  95 S7        29.89R FOG     WCI  26
LONE ROCK      NOT AVBL
MINERAL POINT  FOG       34  34 100 SE12      29.86S VSB 3/4 WCI  25
MADISON        CLOUDY    32  30  92 SE13      29.91F WCI  22
MIDDLETON      NOT AVBL
WATERTOWN      CLOUDY    31  31 100 SE6       29.94F WCI  26
MONROE         FOG       32  32 100 SE13      29.90S VSB 1/4 WCI  22
JANESVILLE     CLOUDY    32  32 100 SE12      29.92F FOG     WCI  23
$$

WIZ051-052-058>065-066-070>072-060300-
SOUTHEAST WISCONSIN

CITY           SKY/WX    TMP DP  RH WIND       PRES   REMARKS
MILWAUKEE      CLOUDY    34  32  92 S5        29.97F FOG     WCI  30
WAUKESHA       CLOUDY    30  28  93 SE9       29.96F FOG     WCI  22
MILWAUKEE/TIMM CLOUDY    32  28  86 S8        29.98S FOG     WCI  25
RACINE         CLOUDY    34  31  88 S3        29.97F FOG
BURLINGTON     CLOUDY    32  31  98 CALM      29.95F FOG
KENOSHA        CLOUDY    33  31  92 S5        29.95F FOG     WCI  29
FOND DU LAC    CLOUDY    32  28  85 S7        29.92F WCI  26
SHEBOYGAN      CLOUDY    33  31  92 S6        29.95F FOG     WCI  28
WEST BEND      CLOUDY    32  32 100 S6        29.95S FOG     WCI  26
JUNEAU         CLOUDY    31  30  96 SE7       29.94F FOG     WCI  24
$$

LSZ147-162-060300-
LAKE SUPERIOR

STATION/POSITION TIME  TEMP    WIND        PRES    WAVE
                       AIR SEA DIR/SP/G            HT/PER
                 (UTC) (F)     (DEG/KT/KT) (MB)    (FT/S)
DEVILS ISLAND    0100   38     110/ 15/ 17 1010.3R
PORT WING        0040   36      90/  7/ 13 1007.5F
SAXON HARBOR     0100   39      70/  8/ 12 1008.1
$$

LMZ867-665-643>646-060300-
LAKE MICHIGAN

STATION/POSITION TIME  TEMP    WIND        PRES    WAVE
                       AIR SEA DIR/SP/G            HT/PER
                 (UTC) (F)     (DEG/KT/KT) (MB)    (FT/S)
CHAMBERS ISLAND  0040   37     180/  7/ 12 1013.9S
NORTHPORT PIER   0040   36     170/  2/  7 1014.2F
SISTER BAY       0109   35     200/ 12/ 14   N/A
ALGOMA LAKESHORE 0106          230/ 10/ 12   N/A
KEWAUNEE LAKESHO 0124   34     220/  4/  7 1014.0
SHEBOYGAN LAKESH 0100   35     210/  5/  6 1014.9F
PORT WASHINGTON  0040   35     210/  4/  6 1015.6F
MILWAUKEE LAKESH 0130   34     190/ 10/ 12   N/A
KENOSHA   LAKESH 0100   33     210/  6/  8 1015.6
$$

TC  - TEMPERATURE IN CELSIUS
VSB - VISIBILITY IN STATUTE MILES
WCI - WIND CHILL INDEX
HX  - HEAT INDEX




USA.gov is the U.S. government's official web portal to all federal, state and local government web resources and services.